Regional Weather Roundup
Issued by NWS Sioux Falls, SD

Home | Current Version | Previous Version | Text Only | Print | Product List | Glossary Off
Versions: 1 2 3 4 5 6 7 8 9 10 11 12 13 14 15 16 17 18 19 20 21 22 23 24 25 26 27 28 29 30 31 32 33 34 35 36 37 38 39 40 41 42 43 44 45 46 47 48 49 50

697
ASUS43 KFSD 252010
RWRFSD

WEATHER ROUNDUP FOR SE SOUTH DAKOTA/SW MINNESOTA/NW IOWA
NATIONAL WEATHER SERVICE SIOUX FALLS SD
300 PM CDT SAT MAR 25 2017

NOTE: "FAIR" INDICATES FEW OR NO CLOUDS BELOW 12,000 FEET WITH NO
SIGNIFICANT WEATHER AND OR OBSTRUCTIONS TO VISIBILITY.


SDZ038>040-050-052>070-252100-
SOUTHEAST SOUTH DAKOTA

CITY           SKY/WX    TMP DP  RH WIND       PRES   REMARKS
BROOKINGS      CLOUDY    40  35  83 E13       30.03F
CHAMBERLAIN    SUNNY     52  36  54 E8G16     29.99F
HURON          MOSUNNY   46  34  62 SE9       30.04F
MADISON        CLOUDY    39  39 100 E12       30.03F
MITCHELL       CLOUDY    42  36  79 NE7       30.05F
SIOUX FALLS    CLOUDY    44  38  79 E13       30.01F
WINNER         FAIR      59  31  34 SE10      29.97F
YANKTON        CLOUDY    43  37  81 NE8       30.00F
$$

MNZ071-072-080-081-089-090-097-098-252100-
SOUTHWEST MINNESOTA

CITY           SKY/WX    TMP DP  RH WIND       PRES   REMARKS
FAIRMONT       CLOUDY    38  35  89 NE16G22   30.03F
JACKSON        CLOUDY    37  36  93 NE16      30.02F FOG
LUVERNE        CLOUDY    37  36  93 NE14      30.01F
MARSHALL       CLOUDY    41  36  82 E14       30.06F
MONTEVIDEO     CLOUDY    39  36  87 E13       30.10F
PIPESTONE      CLOUDY    41  36  81 E12G17    30.01F
REDWOOD FALLS  CLOUDY    42  35  76 NE12      30.06F
TRACY          CLOUDY    41  38  88 NE10      30.05F
WINDOM         CLOUDY    39  37  93 NE16      30.03F
WORTHINGTON    CLOUDY    38  36  92 NE16      30.01F FOG
$$

IAZ001>003-012>014-020>022-031-032-NEZ013-014-SDZ071-252100-
NORTHWEST IOWA

CITY           SKY/WX    TMP DP  RH WIND       PRES   REMARKS
CHEROKEE       CLOUDY    39  38  96 NE10G20   29.99F
ESTHERVILLE    CLOUDY    37  37 100 NE16      30.01F FOG
LE MARS        CLOUDY    41  37  87 NE13G20   30.00F
ORANGE CITY    CLOUDY    39  37  93 E14G20    29.99F
SHELDON        CLOUDY    39  39 100 E20       29.98F
SIOUX CITY     CLOUDY    40  38  93 NE12      29.99F
SPENCER        CLOUDY    39  37  92 NE16      30.00F
STORM LAKE     MIX PCPN  37  37 100 NE21      29.97F
$$

ABBREVIATIONS USED IN REMARKS
   TC - TEMPERATURE IN CELSIUS
  WCI - WIND CHILL INDEX
   HX - HEAT INDEX
  VSB - VISIBILITY





USA.gov is the U.S. government's official web portal to all federal, state and local government web resources and services.